Location: Newark
(47.5783°N, 6.7622°E)
Time: 16:55:54
(UTC+00:00)

Explorer 11/Cluster Stage 4 - All Passes

Search period start: 21 February 2020 00:00
Search period end: 02 March 2020 00:00
Orbit: 467 x 1259 km, 28.8° (Epoch: 20 February)

Date Brightness Start Highest point End Pass type
(mag) Time Alt. Az. Time Alt. Az. Time Alt. Az.
28 Feb - 00:24:40 10° S 00:25:24 10° S 00:26:07 10° S night (unlit)
28 Feb - 22:26:03 10° S 22:27:00 10° S 22:27:54 10° SSE night (unlit)
29 Feb - 00:12:46 10° SSW 00:14:32 11° S 00:16:12 10° SSE night (unlit)
29 Feb - 22:13:37 10° SSW 22:16:04 12° S 22:18:23 10° SSE night (unlit)
01 Mar - 00:01:17 10° SSW 00:03:38 12° S 00:05:50 10° SSE night (unlit)
01 Mar - 22:01:50 10° SSW 22:05:06 13° S 22:08:11 10° SSE night (unlit)
01 Mar - 23:49:56 10° SW 23:52:43 13° S 23:55:19 10° SSE night (unlit)
